Regional Weather Roundup
Issued by NWS Portland, ME

Current Version | Previous Version | Text Only | Print | Product List | Glossary Off
Versions: 1 2 3 4 5 6 7 8 9 10 11 12 13 14 15 16 17 18 19 20 21 22 23 24 25 26 27 28 29 30 31 32 33 34 35 36 37 38 39 40 41 42 43 44 45 46 47 48 49 50
000 ASUS41 KGYX 192005 RWRGYX WEATHER ROUNDUP FOR MAINE AND NEW HAMPSHIRE NATIONAL WEATHER SERVICE GRAY ME 400 PM EDT TUE JUN 19 2018 MEZ002-005-006-010-012-015-018-020-021-024-026-027-029-192100- MAINE CITY SKY/WX TMP DP RH WIND PRES REMARKS PORTLAND FAIR 78 45 30 NW18G25 29.74R SANFORD FAIR 79 45 29 NW9G18 29.75S BAR HARBOR FAIR 73 48 41 NW13G22 29.68R WISCASSET FAIR 77 46 33 MISG 29.73S ROCKLAND FAIR 75 49 39 NW9G20 29.70R FRYEBURG FAIR 77 43 29 N12G21 29.77R LEWISTONAUBURN FAIR 76 46 34 NW14G26 29.75S AUGUSTA FAIR 76 45 33 NW16G26 29.73S WATERVILLE FAIR 74 46 36 NW13G25 29.71R BANGOR FAIR 74 45 35 NW23G29 29.70R GREENVILLE N/A 66 46 48 NW23G29 29.72S MILLINOCKET FAIR 73 44 35 NW16G24 29.68S HOULTON PTSUNNY 71 47 42 N20G32 29.64R PRESQUE ISLE CLOUDY 66 45 46 NW18G30 29.68R FRENCHVILLE PTSUNNY 66 45 46 NW21G33 29.67R CARIBOU FAIR 68 46 45 NW15G25 29.66R $$ NHZ002-005-008-009-011-012-014-192100- NEW HAMPSHIRE CITY SKY/WX TMP DP RH WIND PRES REMARKS PORTSMOUTH MOSUNNY 80 46 29 NW10G24 29.73S ROCHESTER FAIR 78 50 37 NW13G24 29.75S NASHUA FAIR 79 52 38 NW12 29.79S MANCHESTER FAIR 80 45 28 NW16G25 29.77F CONCORD FAIR 78 48 34 NW12 29.79S LACONIA FAIR 75 49 39 NW14 29.79F PLYMOUTH FAIR 75 46 36 W12 29.81S BERLIN FAIR 71 47 42 N14G23 29.82S WHITEFIELD FAIR 71 47 42 W14G25 29.85R JAFFREY FAIR 77 48 35 N9G18 29.83S KEENE FAIR 81 49 32 N13 29.81S LEBANON FAIR 76 48 37 W14G25 29.83F MT WASHINGTON PTSUNNY 43 37 81 NW46G62 N/A $$ VTZ005-007-008-192100- VERMONT CITY SKY/WX TMP DP RH WIND PRES REMARKS ST JOHNSBURY N/A 72 47 40 MISG 29.83S MONTPELIER FAIR 70 51 51 N14 29.91R BURLINGTON FAIR 74 49 41 N15 29.87F $$ MAZ007-012-024-CTZ003-RIZ002-NYZ038-NYZ072-192100- SOUTHERN NEW ENGLAND AND NY CITY SKY/WX TMP DP RH WIND PRES REMARKS BOSTON FAIR 83 51 33 NW17 29.75S WORCESTER FAIR 77 51 40 NW12 29.82S NANTUCKET FAIR 77 60 55 N10 29.75S PROVIDENCE FAIR 84 54 35 N13G18 29.77R HARTFORD FAIR 84 52 33 N15 29.79S ALBANY FAIR 81 49 32 NW8G21 29.84S NEW YORK CITY FAIR 88 53 30 NW12 29.77F $$ ANZ081-ANZ082-ANZ150-NHZ014-MEZ023>029-192100- COASTAL MARINE OBSERVATIONS STATION/POSITION TIME TEMP WIND PRES WAVE AIR SEA DIR/SP/G HT/PER (UTC) (F) (DEG/KT/KT) (MB) (FT/S) MOUNT DESERT ROC 2000 62 290/ 2/ 3 1005.6R MATINICUS ROCK 1900 69 310/ 2/ 3 1005.4R ISLE OF SHOALS 1900 74 330/ 16/ 18 1006.6R JEFFREYS LEDGE 1936 60 N/A 2/ 7 $$ .............KEY.............. WCI - WIND CHILL TC - TEMPERATURE IN CELSIUS VSB - VISIBILITY IN MILES HX - HEAT INDEX FAIR- INDICATES FEW OR NO CLOUDS BELOW 12,000 FT, WITH NO SIGNIFICANT WEATHER AND/OR OBSTRUCTIONS TO VISIBILITY.

USA.gov is the U.S. government's official web portal to all federal, state and local government web resources and services.